Prince Rupert, British Columbia

4:46 AM PDT on September 27, 2016 (GMT -0700)
Prince Rupert

Weather History for CYPR - January, 2013

Change the Weather History Date:

Saturday, January 5, 2013

  Actual Average Record
Temperature  
Mean Temperature 41 °F -  
Max Temperature 45 °F 38 °F 51 °F (2002)
Min Temperature 37 °F 28 °F 6 °F (2004)
Degree Days  
Heating Degree Days 24    
Moisture  
Dew Point 36 °F    
Average Humidity 82    
Maximum Humidity 93    
Minimum Humidity 61    
Precipitation  
Precipitation 0.08 in - - ()
Sea Level Pressure  
Sea Level Pressure 29.76 in    
Wind  
Wind Speed 10 mph ()    
Max Wind Speed 17 mph    
Max Gust Speed 28 mph    
Visibility 8.7 miles    
Events Rain    
Averages and records for this station are not official NWS values.
T = Trace of Precipitation, MM = Missing Value Source: Averaged Metar Reports

Daily Weather History Graph

Daily Weather History Graph

Search for Another Location

Airport or City:

Trip Planner

Search our weather history database for the weather conditions in past years. The results will help you decide how hot, cold, wet, or windy it might be!

Date:

Astronomy

Jan. 05, 2013 Rise Set
Actual Time 9:00 AM PST 4:34 PM PST
Civil Twilight 8:17 AM PST 5:17 PM PST
Nautical Twilight 7:31 AM PST 6:03 PM PST
Astronomical Twilight 6:48 AM PST 6:46 PM PST
Moon 1:42 AM PST (1/5) 11:56 AM PST (1/5)
Length of Visible Light 9h 00m
Length of Day
7h 33m
Last Quarter, 43% of the Moon is Illuminated
Jan 5
Last Quarter
Jan 11
New
Jan 18
First Quarter
Jan 26
Full
Feb 3
Last Quarter

Hourly Weather History & Observations

Time (PST) Temp. Windchill Dew Point Humidity Pressure Visibility Wind Dir Wind Speed Gust Speed Precip Events Conditions
12:00 AM 42.8 °F 38.0 °F 33.8 °F 70% 29.95 in 9.0 mi SE 8.1 mph - N/A   Overcast
2:00 AM 42.8 °F 39.3 °F 32.0 °F 66% 29.89 in 9.0 mi SSE 5.8 mph - N/A   Overcast
3:00 AM 42.8 °F 37.0 °F 32.0 °F 66% 29.88 in 9.0 mi SE 10.4 mph - N/A Rain Light Rain
3:51 AM 44.6 °F 40.7 °F 33.8 °F 66% 29.87 in 9.0 mi South 6.9 mph - N/A   Overcast
3:56 AM 44.6 °F 39.7 °F 35.6 °F 71% 29.87 in 9.0 mi SSE 9.2 mph 17.3 mph N/A Rain Light Rain
4:00 AM 43 °F - 36 °F 68% 29.87 in 10 mi SSE 8.1 mph - - Rain Light Rain
5:00 AM 41.0 °F 39.0 °F 35.6 °F 81% 29.83 in 9.0 mi ESE 3.5 mph - N/A Rain Light Rain
5:09 AM 44.6 °F 37.8 °F 33.8 °F 66% 29.83 in 9.0 mi ESE 15.0 mph 20.7 mph N/A Rain Light Rain
5:12 AM 44.6 °F 37.8 °F 32.0 °F 61% 29.83 in 9.0 mi ESE 15.0 mph 20.7 mph N/A   Overcast
5:33 AM 46.4 °F 40.1 °F 33.8 °F 62% 29.82 in 9.0 mi SE 15.0 mph - N/A Rain Light Rain
7:00 AM 42.8 °F 36.2 °F 37.4 °F 81% 29.76 in 7.0 mi East 12.7 mph 21.9 mph N/A Rain Light Rain
7:36 AM 42.8 °F 36.2 °F 37.4 °F 81% 29.74 in 6.0 mi East 12.7 mph 26.5 mph N/A Rain Light Rain
7:53 AM 42.8 °F 35.8 °F 37.4 °F 81% 29.73 in 5.0 mi East 13.8 mph 21.9 mph N/A Rain Light Rain
8:00 AM 42.8 °F 35.8 °F 37.4 °F 81% 29.73 in 5.0 mi East 13.8 mph 26.5 mph N/A Rain Light Rain
8:04 AM 42.8 °F 36.6 °F 37.4 °F 81% 29.73 in 6.0 mi East 11.5 mph 26.5 mph N/A Rain Light Rain
8:14 AM 42.8 °F 36.2 °F 39.2 °F 87% 29.72 in 5.0 mi ESE 12.7 mph 24.2 mph N/A Rain Light Rain
8:21 AM 42.8 °F 35.8 °F 37.4 °F 81% 29.71 in 6.0 mi ESE 13.8 mph 20.7 mph N/A Rain Light Rain
9:00 AM 42.8 °F 35.1 °F 37.4 °F 81% 29.70 in 9.0 mi ESE 16.1 mph 23.0 mph N/A Rain Light Rain
10:00 AM 44 °F - 38 °F 71% 29.69 in 10 mi ESE 13.8 mph - - Rain Light Rain
10:00 AM 42.8 °F 35.4 °F 37.4 °F 81% 29.69 in 9.0 mi ESE 15.0 mph 23.0 mph N/A Rain Light Rain
10:29 AM 42.8 °F 35.4 °F 37.4 °F 81% 29.71 in 9.0 mi SE 15.0 mph - N/A   Overcast
10:46 AM 42.8 °F 35.8 °F 37.4 °F 81% 29.72 in 9.0 mi SE 13.8 mph 24.2 mph N/A Rain Light Rain
11:00 AM 42.8 °F 34.8 °F 37.4 °F 81% 29.73 in 9.0 mi SSE 17.3 mph 25.3 mph N/A Rain Light Rain
11:47 AM 42.8 °F 36.2 °F 37.4 °F 81% 29.76 in 9.0 mi SSE 12.7 mph 27.6 mph N/A Rain Light Rain
12:00 PM 41.0 °F 33.1 °F 39.2 °F 93% 29.76 in 9.0 mi SE 15.0 mph 24.2 mph N/A Rain Light Rain
12:15 PM 41.0 °F 33.5 °F 37.4 °F 87% 29.76 in 9.0 mi SSE 13.8 mph 23.0 mph N/A   Overcast
1:00 PM 42.8 °F 36.6 °F 37.4 °F 81% 29.76 in 9.0 mi SSE 11.5 mph 19.6 mph N/A Rain Light Rain
1:19 PM 41.0 °F 33.9 °F 37.4 °F 87% 29.76 in 9.0 mi SSE 12.7 mph 19.6 mph N/A   Mostly Cloudy
1:46 PM 41.0 °F 34.3 °F 37.4 °F 87% 29.77 in 9.0 mi SSE 11.5 mph - N/A Rain Light Rain
1:55 PM 41.0 °F 35.2 °F 37.4 °F 87% 29.77 in 9.0 mi SE 9.2 mph 17.3 mph N/A   Mostly Cloudy
2:00 PM 41.0 °F 36.4 °F 37.4 °F 87% 29.77 in 9.0 mi SSE 6.9 mph - N/A   Overcast
3:00 PM 42.8 °F 35.4 °F 35.6 °F 76% 29.76 in 9.0 mi SE 15.0 mph 21.9 mph N/A   Mostly Cloudy
3:25 PM 42.8 °F 37.0 °F 37.4 °F 81% 29.76 in 9.0 mi SE 10.4 mph - N/A Rain Light Rain
3:58 PM 41.0 °F 33.9 °F 35.6 °F 81% 29.75 in 9.0 mi SE 12.7 mph 19.6 mph N/A   Mostly Cloudy
4:00 PM 40 °F - 36 °F 80% 29.76 in 10 mi SE 13.8 mph - -  
4:00 PM 41.0 °F 34.3 °F 35.6 °F 81% 29.76 in 9.0 mi SE 11.5 mph 19.6 mph N/A   Mostly Cloudy
4:30 PM 41.0 °F 34.7 °F 35.6 °F 81% 29.75 in 9.0 mi SE 10.4 mph - N/A Rain Light Rain
4:39 PM 41.0 °F 36.4 °F 35.6 °F 81% 29.75 in 9.0 mi SE 6.9 mph - N/A   Overcast
5:00 PM 41.0 °F 34.7 °F 35.6 °F 81% 29.75 in 9.0 mi SE 10.4 mph - N/A   Overcast
5:53 PM 41.0 °F 35.8 °F 35.6 °F 81% 29.74 in 9.0 mi SE 8.1 mph - N/A Rain Light Rain
6:00 PM 41.0 °F 33.9 °F 35.6 °F 81% 29.74 in 9.0 mi SE 12.7 mph - N/A Rain Light Rain
7:00 PM 39.2 °F 33.0 °F 35.6 °F 87% 29.73 in 9.0 mi SSE 9.2 mph 18.4 mph N/A Rain Light Rain
8:00 PM 37.4 °F 29.8 °F 35.6 °F 93% 29.73 in 9.0 mi SE 11.5 mph - N/A Rain Light Rain
8:29 PM 37.4 °F 31.4 °F 35.6 °F 93% 29.72 in 9.0 mi SE 8.1 mph - N/A   Overcast
8:37 PM 37.4 °F 31.4 °F 35.6 °F 93% 29.72 in 9.0 mi SE 8.1 mph - N/A Rain Light Rain
8:50 PM 37.4 °F 32.1 °F 35.6 °F 93% 29.72 in 9.0 mi SSE 6.9 mph - N/A   Overcast
8:58 PM 37.4 °F 31.4 °F 35.6 °F 93% 29.72 in 9.0 mi SE 8.1 mph - N/A Rain Light Rain
9:00 PM 37.4 °F 30.8 °F 35.6 °F 93% 29.72 in 9.0 mi SSE 9.2 mph - N/A Rain Light Rain
9:28 PM 37.4 °F 32.1 °F 35.6 °F 93% 29.71 in 9.0 mi ESE 6.9 mph - N/A   Overcast
9:56 PM 37.4 °F 32.1 °F 35.6 °F 93% 29.71 in 9.0 mi ESE 6.9 mph - N/A Rain Light Rain
10:00 PM 38 °F - 36 °F 88% 29.71 in 10 mi ESE 6.9 mph - - Rain Light Rain
10:00 PM 39.2 °F 33.0 °F 35.6 °F 87% 29.71 in 9.0 mi ESE 9.2 mph - N/A Rain Light Rain
10:11 PM 37.4 °F 32.1 °F 35.6 °F 93% 29.71 in 9.0 mi SE 6.9 mph - N/A   Overcast
10:52 PM 37.4 °F 32.8 °F 35.6 °F 93% 29.71 in 9.0 mi SE 5.8 mph - N/A Rain Light Rain
11:00 PM 37.4 °F 30.3 °F 35.6 °F 93% 29.71 in 9.0 mi SE 10.4 mph - N/A Rain Light Rain
11:29 PM 37.4 °F 32.1 °F 35.6 °F 93% 29.71 in 9.0 mi ESE 6.9 mph - N/A   Overcast
11:37 PM 39.2 °F 34.2 °F 35.6 °F 87% 29.71 in 9.0 mi ESE 6.9 mph - N/A Rain Light Rain